Hourly Data Report for November 03, 2016

All times are specified in Local Standard Time (LST). Add 1 hour to adjust for Daylight Saving Time where and when it is observed.

KITCHENER/WATERLOO
ONTARIO

43°27'39.000" N
80°22'43.000" W
321.60 m
6144239
71368
YKF

Download Data

Hourly Data (November 2016)
Hourly Data Report for November 3, 2016
Temp Definition
°C
Dew Point Temp Definition
°C
Rel Hum Definition
%
Wind Dir Definition
10's deg

Wind Spd Definition
km/h
Visibility Definition
km
Stn Press Definition
kPa
Hmdx Definition


Wind Chill Definition


Weather Definition


TIME
00:00 Legend Double Dagger 11.7 11.2 97   0 3.2 98.00     Fog
01:00 Legend Double Dagger 11.8 11.3 97 8 5 2.4 97.91     Rain,Fog
02:00 Legend Double Dagger 11.8 11.3 97 6 5 2.0 97.83     Rain,Fog
03:00 Legend Double Dagger 11.2 10.8 97 1 15 2.8 97.75     Heavy Rain,Fog
04:00 Legend Double Dagger 10.6 10.0 96 35 8 6.4 97.76     Moderate Rain,Fog
05:00 Legend Double Dagger 10.4 10.0 97 36 15 8.1 97.84     Moderate Rain,Fog
06:00 Legend Double Dagger 10.0 9.4 96 5 11 9.7 97.73     Rain,Fog
07:00 Legend Double Dagger 9.8 9.2 96 32 13 16.1 97.86     LegendNANA
08:00 Legend Double Dagger 9.8 8.6 92 35 9 16.1 97.88     LegendNANA
09:00 Legend Double Dagger 10.5 8.9 90 29 11 16.1 98.01     LegendNANA
10:00 Legend Double Dagger 11.0 8.7 86 32 13 16.1 98.03     LegendNANA
11:00 Legend Double Dagger 11.5 8.0 79 30 21 16.1 98.08     LegendNANA
12:00 Legend Double Dagger 12.5 8.1 74 30 26 16.1 98.06     LegendNANA
13:00 Legend Double Dagger 13.0 8.0 72 30 24 16.1 98.04     LegendNANA
14:00 Legend Double Dagger 13.3 6.8 64 30 26 16.1 98.02     LegendNANA
15:00 Legend Double Dagger 12.3 5.9 65 30 21 16.1 98.02     LegendNANA
16:00 Legend Double Dagger 11.5 6.8 73 30 18 16.1 98.08     LegendNANA
17:00 Legend Double Dagger 10.8 6.9 77 32 18 16.1 98.11     LegendNANA
18:00 Legend Double Dagger 9.3 5.5 77 32 17 16.1 98.19     LegendNANA
19:00 Legend Double Dagger 8.0 5.3 83 32 17 16.1 98.26     LegendNANA
20:00 Legend Double Dagger 7.2 5.0 86 32 17 16.1 98.33     LegendNANA
21:00 Legend Double Dagger 5.6 4.3 91 31 11 16.1 98.33     LegendNANA
22:00 Legend Double Dagger 5.7 4.7 93 32 13 16.1 98.38     LegendNANA
23:00 Legend Double Dagger 6.5 5.3 92 32 9 16.1 98.43     LegendNANA

Notes on Data Quality.

Legend

  • E = Estimated
  • M = Missing
  • NA = Not Available
  • ‡ = Partner data that is not subject to review by the National Climate Archives
Date modified: